| time (UTC) | temp F | wind direction | speed knots | gust knots | rain 1hr in | rain 24hr in | rain mn in | humidity % | barometer mb |
| 20260504100516 | 56 | 203 | 2.6 | 4.3 | 0.00 | 0.00 | 0.00 | 64 | 1014.7 |
| 20260504081515 | 55 | 0.0 | 0.0 | 0.00 | 0.00 | 0.00 | 67 | 1015.0 | |
| 20260504080516 | 55 | 0.0 | 0.0 | 0.00 | 0.00 | 0.00 | 66 | 1015.0 | |
| 20260504050515 | 52 | 0.0 | 1.7 | 0.00 | 0.00 | 0.00 | 62 | 1015.2 | |
| 20260504045515 | 52 | 0.0 | 0.0 | 0.00 | 0.00 | 0.00 | 62 | 1015.2 | |
| 20260504044518 | 52 | 0.0 | 1.7 | 0.00 | 0.00 | 0.00 | 61 | 1015.3 | |
| 20260504043515 | 52 | 203 | 0.9 | 1.7 | 0.00 | 0.00 | 0.00 | 60 | 1015.2 |
| 20260504042515 | 51 | 225 | 0.9 | 2.6 | 0.00 | 0.00 | 0.00 | 62 | 1015.3 |
| 20260504041515 | 50 | 0.0 | 1.7 | 0.00 | 0.00 | 0.00 | 65 | 1015.1 | |
| 20260504040515 | 50 | 0.0 | 0.0 | 0.00 | 0.00 | 0.00 | 70 | 1015.2 | |
| 20260504035516 | 50 | 0.0 | 0.0 | 0.00 | 0.00 | 0.00 | 69 | 1015.2 | |
| 20260504034516 | 50 | 0.0 | 0.0 | 0.00 | 0.00 | 0.00 | 69 | 1015.0 | |
| 20260504033516 | 50 | 0.0 | 1.7 | 0.00 | 0.00 | 0.00 | 67 | 1015.0 | |
| 20260504032519 | 50 | 0.0 | 0.9 | 0.00 | 0.00 | 0.00 | 68 | 1014.8 | |
| 20260504031516 | 50 | 0.0 | 0.0 | 0.00 | 0.00 | 0.00 | 67 | 1014.7 | |
| 20260504030536 | 50 | 0.0 | 0.0 | 0.00 | 0.00 | 0.00 | 68 | 1014.7 | |
| 20260504025516 | 49 | 0.0 | 0.9 | 0.00 | 0.00 | 0.00 | 69 | 1014.7 | |
| 20260504024516 | 49 | 0.0 | 0.0 | 0.00 | 0.00 | 0.00 | 70 | 1014.7 | |
| 20260504023516 | 49 | 0.0 | 0.9 | 0.00 | 0.00 | 0.00 | 71 | 1014.6 | |
| 20260504022516 | 50 | 0.0 | 0.0 | 0.00 | 0.00 | 0.00 | 69 | 1014.7 | |
| 20260504021516 | 49 | 0.0 | 0.9 | 0.00 | 0.00 | 0.00 | 67 | 1014.7 | |
| 20260504020516 | 49 | 0.0 | 0.0 | 0.00 | 0.00 | 0.00 | 68 | 1014.6 | |
| 20260504015516 | 50 | 0.0 | 0.9 | 0.00 | 0.00 | 0.00 | 64 | 1014.6 | |
| 20260504014516 | 51 | 0.0 | 0.9 | 0.00 | 0.00 | 0.00 | 63 | 1014.5 | |
| 20260504013516 | 51 | 0.0 | 0.9 | 0.00 | 0.00 | 0.00 | 61 | 1014.5 | |
| 20260504012516 | 51 | 0.0 | 0.0 | 0.00 | 0.00 | 0.00 | 62 | 1014.4 | |
| 20260504011517 | 52 | 0.0 | 0.0 | 0.00 | 0.00 | 0.00 | 59 | 1014.3 | |
| 20260504010516 | 53 | 0.0 | 0.0 | 0.00 | 0.00 | 0.00 | 58 | 1014.3 | |
| 20260504005516 | 54 | 0.0 | 0.0 | 0.00 | 0.00 | 0.00 | 56 | 1014.3 | |
| 20260504004516 | 54 | 0.0 | 0.0 | 0.00 | 0.00 | 0.00 | 54 | 1014.1 | |
| 20260504003536 | 55 | 0.0 | 0.0 | 0.00 | 0.00 | 0.00 | 52 | 1014.0 | |
| 20260504002516 | 56 | 0.0 | 0.0 | 0.00 | 0.00 | 0.00 | 51 | 1014.0 | |
| 20260504001516 | 58 | 0.0 | 0.0 | 0.00 | 0.00 | 0.00 | 47 | 1013.9 | |
| 20260504000516 | 59 | 0.0 | 0.0 | 0.00 | 0.00 | 0.00 | 43 | 1013.8 | |
| 20260503235516 | 61 | 0.0 | 0.0 | 0.00 | 0.00 | 0.00 | 40 | 1013.7 | |
| 20260503234516 | 62 | 0.0 | 0.0 | 0.00 | 0.00 | 0.00 | 38 | 1013.5 | |
| 20260503233516 | 63 | 248 | 0.9 | 2.6 | 0.00 | 0.00 | 0.00 | 36 | 1013.4 |
| 20260503232516 | 63 | 270 | 5.2 | 7.8 | 0.00 | 0.00 | 0.00 | 35 | 1013.4 |
| 20260503231516 | 63 | 270 | 4.3 | 8.7 | 0.00 | 0.00 | 0.00 | 36 | 1013.4 |
| 20260503230539 | 63 | 225 | 2.6 | 3.5 | 0.00 | 0.00 | 0.00 | 35 | 1013.4 |
| 20260503225516 | 63 | 270 | 5.2 | 7.0 | 0.00 | 0.00 | 0.00 | 35 | 1013.4 |
| 20260503224536 | 63 | 270 | 7.0 | 8.7 | 0.00 | 0.00 | 0.00 | 36 | 1013.5 |
| 20260503223516 | 63 | 270 | 7.8 | 11.3 | 0.00 | 0.00 | 0.00 | 36 | 1013.4 |
| 20260503222536 | 63 | 293 | 5.2 | 7.8 | 0.00 | 0.00 | 0.00 | 38 | 1013.4 |
| 20260503221516 | 63 | 293 | 7.8 | 8.7 | 0.00 | 0.00 | 0.00 | 34 | 1013.4 |
| 20260503220516 | 63 | 248 | 8.7 | 11.3 | 0.00 | 0.00 | 0.00 | 36 | 1013.5 |
| 20260503215516 | 63 | 293 | 7.8 | 11.3 | 0.00 | 0.00 | 0.00 | 33 | 1013.5 |
| 20260503214515 | 63 | 270 | 8.7 | 13.9 | 0.00 | 0.00 | 0.00 | 35 | 1013.5 |
| 20260503213515 | 62 | 248 | 8.7 | 16.5 | 0.00 | 0.00 | 0.00 | 37 | 1013.5 |
| 20260503212516 | 62 | 293 | 9.6 | 16.5 | 0.00 | 0.00 | 0.00 | 39 | 1013.5 |
| 20260503211516 | 62 | 270 | 5.2 | 7.0 | 0.00 | 0.00 | 0.00 | 36 | 1013.3 |
| 20260503210515 | 62 | 270 | 5.2 | 8.7 | 0.00 | 0.00 | 0.00 | 38 | 1013.4 |
| 20260503205556 | 62 | 248 | 8.7 | 10.4 | 0.00 | 0.00 | 0.00 | 38 | 1013.5 |
| 20260503204516 | 62 | 270 | 3.5 | 6.1 | 0.00 | 0.00 | 0.00 | 39 | 1013.5 |
| 20260503203515 | 61 | 248 | 5.2 | 10.4 | 0.00 | 0.00 | 0.00 | 40 | 1013.6 |
| 20260503202515 | 60 | 293 | 13.0 | 14.8 | 0.00 | 0.00 | 0.00 | 41 | 1013.7 |
| 20260503201555 | 61 | 293 | 12.2 | 16.5 | 0.00 | 0.00 | 0.00 | 41 | 1013.9 |
| 20260503200515 | 60 | 293 | 13.9 | 19.1 | 0.00 | 0.00 | 0.00 | 42 | 1014.0 |
| 20260503195515 | 60 | 270 | 9.6 | 13.9 | 0.00 | 0.00 | 0.00 | 40 | 1014.2 |
| 20260503194515 | 59 | 315 | 7.0 | 10.4 | 0.00 | 0.00 | 0.00 | 45 | 1014.2 |
| 20260503193515 | 59 | 293 | 8.7 | 11.3 | 0.00 | 0.00 | 0.00 | 40 | 1014.3 |
| 20260503192515 | 58 | 293 | 8.7 | 10.4 | 0.00 | 0.00 | 0.00 | 42 | 1014.4 |
| 20260503191515 | 59 | 293 | 12.2 | 16.5 | 0.00 | 0.00 | 0.00 | 43 | 1014.6 |
| 20260503190516 | 58 | 270 | 10.4 | 13.9 | 0.00 | 0.00 | 0.00 | 45 | 1014.7 |
| 20260503185518 | 58 | 293 | 13.0 | 15.6 | 0.00 | 0.00 | 0.00 | 49 | 1014.8 |
| 20260503184515 | 57 | 293 | 8.7 | 11.3 | 0.00 | 0.00 | 0.00 | 46 | 1015.0 |
| 20260503183515 | 58 | 248 | 8.7 | 14.8 | 0.00 | 0.00 | 0.00 | 42 | 1015.1 |
| 20260503182515 | 57 | 315 | 9.6 | 11.3 | 0.00 | 0.00 | 0.00 | 45 | 1015.2 |
| 20260503181515 | 56 | 293 | 12.2 | 14.8 | 0.00 | 0.00 | 0.00 | 50 | 1015.2 |
| 20260503180535 | 56 | 315 | 9.6 | 11.3 | 0.00 | 0.00 | 0.00 | 46 | 1015.2 |
| 20260503175515 | 57 | 293 | 8.7 | 11.3 | 0.00 | 0.00 | 0.00 | 45 | 1015.3 |
| 20260503174515 | 56 | 293 | 16.5 | 21.7 | 0.00 | 0.00 | 0.00 | 53 | 1015.4 |
| 20260503173515 | 55 | 315 | 8.7 | 10.4 | 0.00 | 0.00 | 0.00 | 45 | 1015.4 |
| 20260503172535 | 55 | 293 | 13.9 | 17.4 | 0.00 | 0.00 | 0.00 | 47 | 1015.5 |
| 20260503171538 | 55 | 293 | 15.6 | 18.2 | 0.00 | 0.00 | 0.00 | 46 | 1015.5 |
| 20260503170635 | 55 | 293 | 7.8 | 11.3 | 0.00 | 0.00 | 0.00 | 44 | 1015.6 |
| 20260503150517 | 51 | 293 | 12.2 | 16.5 | 0.00 | 0.00 | 0.00 | 52 | 1016.2 |
| 20260503130517 | 49 | 293 | 14.8 | 16.5 | 0.00 | 0.00 | 0.00 | 64 | 1016.3 |
| 20260503110516 | 46 | 293 | 8.7 | 12.2 | 0.00 | 0.00 | 0.00 | 69 | 1015.0 |